User: anonymous   Login
Location: Joplin
(37.0842°N, 94.5131°W)
Time: 19:47:06
(UTC-06:00)
Language:

NO-84 - Orbit

View from above orbital plane
View from above orbital plane
View from above satellite
View from above satellite

Ground track
Ground track

The orbit data is extracted from the following two-line orbital elements,

1 40654U 15025D   19309.43798813  .00013012  00000 0  17327-3 0  7668
2 40654  54.9896 254.3443 0127956 327.2539  32.0657 15.49451819134095
Epoch (UTC): 05 November 2019 10:30:42
Eccentricity: 0.0127956
inclination: 54.9896°
perigee height: 331 km
apogee height: 505 km
right ascension of ascending node: 254.3443°
argument of perigee: 327.2539°
revolutions per day: 15.49451819
mean anomaly at epoch: 32.0657°
orbit number at epoch: 13409

The dashed part of the orbit path shows where the satellite is in the earth's shadow,  

DLR